Location: Ehrke Reservoir
(40.0279°N, 99.6641°W)
Time: 13:27:28
(UTC+00:00)

ATLAS 5 CENTAUR R/B - Pass Details

Date: 20 January 2020
Orbit: 283 x 14332 km, 60.7° (Epoch: 20 February)

Event Time Altitude Azimuth Distance (km) Brightness Sun altitude
Rises 02:32:08 0° 329° (NNW) 3,135 6.0 -32.3°
Reaches altitude 10° 02:33:41 10° 336° (NNW) 2,594 5.5 -32.6°
Enters shadow 02:37:29 43° 16° (NNE) 1,963 4.3 -33.3°
Exits shadow 03:09:44 - 130° (SE) 11,551 8.1 -39.5°
Sets 03:19:15 0° 133° (SE) 13,822 8.5 -41.3°
